H1 CPF 2 NER 2024 9 2 9 246 01 glonass138 H2 1805301 9138 43508 2024 9 2 0 0 0 2024 9 5 23 45 0 900 1 1 0 0 0 1 H9 10 0 60555 0.00000 0 -8477591.669 -7048247.095 23005265.537 10 0 60555 900.00000 0 -7446854.456 -9655113.217 22405621.859 10 0 60555 1800.00000 0 -6644336.456 -12236267.142 21370888.152 10 0 60555 2700.00000 0 -6074212.089 -14722289.096 19921047.789 10 0 60555 3600.00000 0 -5728127.886 -17045447.114 18084157.430 10 0 60555 4500.00000 0 -5585721.991 -19142339.290 15895811.416 10 0 60555 5400.00000 0 -5615662.196 -20956370.917 13398458.206 10 0 60555 6300.00000 0 -5777158.798 -22439963.138 10640581.268 10 0 60555 7200.00000 0 -6021888.399 -23556400.517 7675759.727 10 0 60555 8100.00000 0 -6296247.131 -24281239.841 4561626.692 10 0 60555 9000.00000 0 -6543837.494 -24603220.587 1358745.516 10 0 60555 9900.00000 0 -6708082.788 -24524638.480 -1870573.712 10 0 60555 10800.00000 0 -6734857.391 -24061166.211 -5063493.805 10 0 60555 11700.00000 0 -6575020.219 -23241128.905 -8157881.533 10 0 60555 12600.00000 0 -6186742.737 -22104265.107 -11093525.138 10 0 60555 13500.00000 0 -5537531.577 -20700026.031 -13813313.547 10 0 60555 14400.00000 0 -4605858.899 -19085485.346 -16264353.498 10 0 60555 15300.00000 0 -3382330.398 -17322948.311 -18399002.144 10 0 60555 16200.00000 0 -1870340.686 -15477361.537 -20175794.689 10 0 60555 17100.00000 0 -86187.535 -13613632.827 -21560249.024 10 0 60555 18000.00000 0 1941360.463 -11793973.942 -22525531.956 10 0 60555 18900.00000 0 4172025.272 -10075377.742 -23052974.632 10 0 60555 19800.00000 0 6555470.070 -8507334.994 -23132427.851 10 0 60555 20700.00000 0 9033178.929 -7129885.734 -22762451.113 10 0 60555 21600.00000 0 11540687.542 -5972085.610 -21950332.505 10 0 60555 22500.00000 0 14010072.437 -5050950.008 -20711939.675 10 0 60555 23400.00000 0 16372595.485 -4370918.636 -19071405.295 10 0 60555 24300.00000 0 18561394.143 -3923861.346 -17060653.444 10 0 60555 25200.00000 0 20514106.057 -3689623.353 -14718776.247 10 0 60555 26100.00000 0 22175319.347 -3637085.497 -12091272.897 10 0 60555 27000.00000 0 23498747.175 -3725693.713 -9229165.749 10 0 60555 27900.00000 0 24449036.653 -3907392.276 -6188010.475 10 0 60555 28800.00000 0 25003137.273 -4128878.618 -3026819.375 10 0 60555 29700.00000 0 25151172.404 -4334084.009 193081.408 10 0 60555 30600.00000 0 24896778.093 -4466775.080 3409238.741 10 0 60555 31500.00000 0 24256895.523 -4473166.058 6559280.446 10 0 60555 32400.00000 0 23261026.315 -4304431.251 9582121.064 10 0 60555 33300.00000 0 21949982.147 -3919011.500 12419142.193 10 0 60555 34200.00000 0 20374181.223 -3284617.004 15015324.742 10 0 60555 35100.00000 0 18591562.841 -2379841.648 17320311.438 10 0 60555 36000.00000 0 16665207.113 -1195320.184 19289379.438 10 0 60555 36900.00000 0 14660758.953 265621.293 20884304.582 10 0 60555 37800.00000 0 12643763.467 1986850.106 22074101.027 10 0 60555 38700.00000 0 10677023.310 3939853.265 22835622.350 10 0 60555 39600.00000 0 8818087.660 6084689.109 23154012.715 10 0 60555 40500.00000 0 7116976.859 8371426.312 23022999.468 10 0 60555 41400.00000 0 5614237.006 10742012.083 22445021.345 10 0 60555 42300.00000 0 4339405.157 13132493.358 21431189.388 10 0 60555 43200.00000 0 3309948.801 15475499.923 20001080.678 10 0 60555 44100.00000 0 2530723.620 17702887.253 18182368.033 10 0 60555 45000.00000 0 1993972.001 19748429.676 16010291.911 10 0 60555 45900.00000 0 1679862.197 21550451.955 13526983.790 10 0 60555 46800.00000 0 1557545.260 23054289.439 10780653.309 10 0 60555 47700.00000 0 1586684.992 24214473.572 7824654.328 10 0 60555 48600.00000 0 1719395.987 24996550.730 4716447.742 10 0 60555 49500.00000 0 1902507.295 25378457.448 1516481.181 10 0 60555 50400.00000 0 2080055.159 25351393.613 -1712992.191 10 0 60555 51300.00000 0 2195898.272 24920156.391 -4909132.135 10 0 60555 52200.00000 0 2196343.581 24102920.504 -8009742.450 10 0 60555 53100.00000 0 2032670.068 22930473.993 -10954489.714 10 0 60555 54000.00000 0 1663442.286 21444941.863 -13686084.935 10 0 60555 54900.00000 0 1056514.408 19698051.682 -16151404.222 10 0 60555 55800.00000 0 190638.828 17749014.676 -18302525.991 10 0 60555 56700.00000 0 -943389.609 15662111.950 -20097664.152 10 0 60555 57600.00000 0 -2342102.909 13504087.664 -21501979.113 10 0 60555 58500.00000 0 -3989269.973 11341458.872 -22488251.059 10 0 60555 59400.00000 0 -5856351.718 9237854.720 -23037402.951 10 0 60555 60300.00000 0 -7903482.642 7251496.053 -23138863.791 10 0 60555 61200.00000 0 -10080938.093 5432920.152 -22790765.844 10 0 60555 62100.00000 0 -12331026.278 3823044.648 -21999972.773 10 0 60555 63000.00000 0 -14590326.361 2451650.113 -20781938.778 10 0 60555 63900.00000 0 -16792179.666 1336343.180 -19160402.014 10 0 60555 64800.00000 0 -18869330.529 482041.779 -17166918.559 10 0 60555 65700.00000 0 -20756607.175 -118997.784 -14840246.139 10 0 60555 66600.00000 0 -22393531.292 -486614.733 -12225589.592 10 0 60555 67500.00000 0 -23726747.960 -651664.098 -9373722.643 10 0 60555 68400.00000 0 -24712175.032 -654470.093 -6340002.860 10 0 60555 69300.00000 0 -25316782.638 -542878.824 -3183298.782 10 0 60555 70200.00000 0 -25519928.917 -369993.218 35150.093 10 0 60555 71100.00000 0 -25314196.529 -191686.348 3252918.496 10 0 60555 72000.00000 0 -24705695.262 -63998.504 6407602.820 10 0 60555 72900.00000 0 -23713818.334 -40528.194 9438027.482 10 0 60555 73800.00000 0 -22370462.711 -169927.408 12285427.019 10 0 60555 74700.00000 0 -20718746.062 -493607.079 14894581.172 10 0 60555 75600.00000 0 -18811273.856 -1043749.772 17214881.273 10 0 60555 76500.00000 0 -16708028.662 -1841713.820 19201307.687 10 0 60555 77400.00000 0 -14473969.354 -2896896.702 20815299.778 10 0 60555 78300.00000 0 -12176439.732 -4206106.375 22025502.020 10 0 60555 79200.00000 0 -9882493.874 -5753468.153 22808372.220 10 0 60555 80100.00000 0 -7656248.874 -7510872.494 23148640.319 10 0 60555 81000.00000 0 -5556374.405 -9438946.577 23039608.983 10 0 60555 81900.00000 0 -3633822.882 -11488510.856 22483290.036 10 0 60555 82800.00000 0 -1929894.091 -13602461.412 21490373.649 10 0 60555 83700.00000 0 -474714.356 -15718001.144 20080030.246 10 0 60555 84600.00000 0 713806.761 -17769128.010 18279548.131 10 0 60555 85500.00000 0 1630499.019 -19689277.346 16123812.887 10 0 60556 0.00000 0 2282911.720 -21414008.339 13654637.955 10 0 60556 900.00000 0 2690753.060 -22883623.302 10919957.118 10 0 60556 1800.00000 0 2884811.729 -24045607.606 7972897.341 10 0 60556 2700.00000 0 2905407.814 -24856790.473 4870745.228 10 0 60556 3600.00000 0 2800438.067 -25285132.837 1673830.399 10 0 60556 4500.00000 0 2623099.367 -25311067.197 -1555653.355 10 0 60556 5400.00000 0 2429387.614 -24928332.155 -4754865.350 10 0 60556 6300.00000 0 2275479.127 -24144265.786 -7861549.151 10 0 60556 7200.00000 0 2215106.777 -22979545.073 -10815252.537 10 0 60556 8100.00000 0 2297043.271 -21467382.127 -13558511.528 10 0 60556 9000.00000 0 2562799.464 -19652211.117 -16037974.565 10 0 60556 9900.00000 0 3044636.226 -17587921.340 -18205444.226 10 0 60556 10800.00000 0 3763974.879 -15335711.086 -20018815.880 10 0 60556 11700.00000 0 4730274.128 -12961652.658 -21442894.951 10 0 60556 12600.00000 0 5940421.397 -10534070.918 -22450077.154 10 0 60556 13500.00000 0 7378664.667 -8120845.097 -23020879.017 10 0 60556 14400.00000 0 9017088.002 -5786746.426 -23144309.048 10 0 60556 15300.00000 0 10816611.072 -3590922.205 -22818073.125 10 0 60556 16200.00000 0 12728471.054 -1584630.401 -22048610.879 10 0 60556 17100.00000 0 14696125.131 190682.031 -20850963.021 10 0 60556 18000.00000 0 16657494.338 1704878.387 -19248472.710 10 0 60556 18900.00000 0 18547455.284 2940148.227 -17272327.109 10 0 60556 19800.00000 0 20300476.017 3891499.554 -14960948.179 10 0 60556 20700.00000 0 21853286.264 4566708.416 -12359244.581 10 0 60556 21600.00000 0 23147470.836 4985729.859 -9517739.127 10 0 60556 22500.00000 0 24131878.159 5179596.566 -6491588.564 10 0 60556 23400.00000 0 24764743.495 5188852.853 -3339514.593 10 0 60556 24300.00000 0 25015438.314 5061591.071 -122666.705 10 0 60556 25200.00000 0 24865772.805 4851174.005 3096561.216 10 0 60556 26100.00000 0 24310797.123 4613739.931 6255737.682 10 0 60556 27000.00000 0 23359067.867 4405596.006 9293600.452 10 0 60556 27900.00000 0 22032368.544 4280610.228 12151240.280 10 0 60556 28800.00000 0 20364895.522 4287712.193 14773238.749 10 0 60556 29700.00000 0 18401943.139 4468608.222 17108738.488 10 0 60556 30600.00000 0 16198142.393 4855807.394 19112425.415 10 0 60556 31500.00000 0 13815326.075 5471041.990 20745404.395 10 0 60556 32400.00000 0 11320108.585 6324149.412 21975951.813 10 0 60556 33300.00000 0 8781280.335 7412463.400 22780130.904 10 0 60556 34200.00000 0 6267124.302 8720741.236 23142258.156 10 0 60556 35100.00000 0 3842765.385 10221631.329 23055211.891 10 0 60556 36000.00000 0 1567661.887 11876663.175 22520576.883 10 0 60556 36900.00000 0 -506657.298 13637719.822 21548621.810 10 0 60556 37800.00000 0 -2338516.377 15448932.854 20158109.362 10 0 60556 38700.00000 0 -3897597.652 17248921.984 18375941.808 10 0 60556 39600.00000 0 -5165965.494 18973286.683 16236647.969 10 0 60556 40500.00000 0 -6138566.929 20557246.255 13781720.588 10 0 60556 41400.00000 0 -6823188.224 21938318.063 11058816.058 10 0 60556 42300.00000 0 -7239869.708 23058921.458 8120831.447 10 0 60556 43200.00000 0 -7419803.901 23868797.575 5024876.370 10 0 60556 44100.00000 0 -7403764.034 24327142.526 1831159.684 10 0 60556 45000.00000 0 -7240130.037 24404363.224 -1398186.965 10 0 60556 45900.00000 0 -6982596.447 24083380.912 -4600325.203 10 0 60556 46800.00000 0 -6687660.324 23360426.502 -7712941.033 10 0 60556 47700.00000 0 -6411996.791 22245293.448 -10675465.973 10 0 60556 48600.00000 0 -6209834.609 20761036.915 -13430263.426 10 0 60556 49500.00000 0 -6130444.141 18943131.619 -15923756.313 10 0 60556 50400.00000 0 -6215845.126 16838123.666 -18107473.304 10 0 60556 51300.00000 0 -6498832.132 14501833.118 -19938992.909 10 0 60556 52200.00000 0 -7001401.780 11997182.856 -21382767.025 10 0 60556 53100.00000 0 -7733648.602 9391744.849 -22410808.137 10 0 60556 54000.00000 0 -8693176.343 6755106.471 -23003227.325 10 0 60556 54900.00000 0 -9865049.632 4156166.691 -23148613.328 10 0 60556 55800.00000 0 -11222288.104 1660474.493 -22844246.055 10 0 60556 56700.00000 0 -12726882.257 -672280.319 -22096141.173 10 0 60556 57600.00000 0 -14331288.503 -2790520.495 -20918925.576 10 0 60556 58500.00000 0 -15980340.843 -4652686.373 -19335546.696 10 0 60556 59400.00000 0 -17613499.256 -6228714.814 -17376821.654 10 0 60556 60300.00000 0 -19167340.896 -7501032.158 -15080835.153 10 0 60556 61200.00000 0 -20578190.005 -8465021.575 -12492197.880 10 0 60556 62100.00000 0 -21784776.727 -9128947.132 -9661179.694 10 0 60556 63000.00000 0 -22730813.691 -9513339.519 -6642734.298 10 0 60556 63900.00000 0 -23367382.646 -9649870.757 -3495434.177 10 0 60556 64800.00000 0 -23655031.267 -9579766.526 -280336.337 10 0 60556 65700.00000 0 -23565492.356 -9351823.998 2940199.323 10 0 60556 66600.00000 0 -23082953.323 -9020119.445 6103716.108 10 0 60556 67500.00000 0 -22204822.638 -8641502.828 9148867.877 10 0 60556 68400.00000 0 -20941960.891 -8272985.327 12016604.376 10 0 60556 69300.00000 0 -19318366.377 -7969130.174 14651311.779 10 0 60556 70200.00000 0 -17370327.836 -7779556.867 17001886.644 10 0 60556 71100.00000 0 -15145079.031 -7746664.005 19022722.879 10 0 60556 72000.00000 0 -12699010.484 -7903666.777 20674593.005 10 0 60556 72900.00000 0 -10095511.949 -8273031.942 21925407.125 10 0 60556 73800.00000 0 -7402534.385 -8865376.601 22750835.307 10 0 60556 74700.00000 0 -4689971.740 -9678877.718 23134781.583 10 0 60556 75600.00000 0 -2026970.290 -10699218.159 23069700.507 10 0 60556 76500.00000 0 520723.744 -11900072.728 22556749.992 10 0 60556 77400.00000 0 2893269.005 -13244115.163 21605777.065 10 0 60556 78300.00000 0 5038982.933 -14684505.296 20235136.183 10 0 60556 79200.00000 0 6916251.685 -16166795.402 18471342.775 10 0 60556 80100.00000 0 8495017.000 -17631176.934 16348567.794 10 0 60556 81000.00000 0 9757778.343 -19014974.234 13907982.100 10 0 60556 81900.00000 0 10700068.800 -20255281.016 11196962.536 10 0 60556 82800.00000 0 11330385.108 -21291628.853 8268174.459 10 0 60556 83700.00000 0 11669575.192 -22068575.053 5178548.217 10 0 60556 84600.00000 0 11749709.518 -22538100.288 1988169.396 10 0 60556 85500.00000 0 11612484.549 -22661713.927 -1240895.179 10 0 60557 0.00000 0 11307226.636 -22412177.244 -4445811.931 10 0 60557 900.00000 0 10888581.577 -21774770.478 -7564212.709 10 0 60557 1800.00000 0 10413989.238 -20748049.643 -10535415.317 10 0 60557 2700.00000 0 9941050.770 -19344059.894 -13301613.337 10 0 60557 3600.00000 0 9524901.438 -17587996.016 -15809006.899 10 0 60557 4500.00000 0 9215701.168 -15517323.875 -18008853.355 10 0 60557 5400.00000 0 9056349.810 -13180399.534 -19858416.762 10 0 60557 6300.00000 0 9080524.279 -10634643.894 -21321797.633 10 0 60557 7200.00000 0 9311120.794 -7944349.316 -22370627.031 10 0 60557 8100.00000 0 9759168.008 -5178209.900 -22984612.023 10 0 60557 9000.00000 0 10423256.740 -2406678.308 -23151922.606 10 0 60557 9900.00000 0 11289510.091 300740.991 -22869413.323 10 0 60557 10800.00000 0 12332094.941 2878150.004 -22142676.066 10 0 60557 11700.00000 0 13514253.095 5265757.266 -20985923.710 10 0 60557 12600.00000 0 14789808.594 7412116.818 -19421707.375 10 0 60557 13500.00000 0 16105087.847 9276014.336 -17480473.170 10 0 60557 14400.00000 0 17401172.001 10827923.485 -15199967.202 10 0 60557 15300.00000 0 18616387.153 12050973.489 -12624500.446 10 0 60557 16200.00000 0 19688928.009 12941389.327 -9804087.693 10 0 60557 17100.00000 0 20559505.070 13508387.889 -6793477.114 10 0 60557 18000.00000 0 21173904.343 13773536.072 -3651089.173 10 0 60557 18900.00000 0 21485352.200 13769599.212 -437885.322 10 0 60557 19800.00000 0 21456586.128 13538929.434 2783811.733 10 0 60557 20700.00000 0 21061544.330 13131462.682 5951523.370 10 0 60557 21600.00000 0 20286603.045 12602409.427 9003822.762 10 0 60557 22500.00000 0 19131309.342 12009736.756 11881521.738 10 0 60557 23400.00000 0 17608578.113 11411548.137 14528813.944 10 0 60557 24300.00000 0 15744344.354 10863471.301 16894352.503 10 0 60557 25200.00000 0 13576684.360 10416164.181 18932241.666 10 0 60557 26100.00000 0 11154441.538 10113043.836 20602923.659 10 0 60557 27000.00000 0 8535412.966 9988333.877 21873944.018 10 0 60557 27900.00000 0 5784170.948 10065512.593 22720580.998 10 0 60557 28800.00000 0 2969608.900 10356227.293 23126327.120 10 0 60557 29700.00000 0 162312.278 10859720.987 23083213.673 10 0 60557 30600.00000 0 -2568137.510 11562796.252 22591971.725 10 0 60557 31500.00000 0 -5155815.280 12440318.761 21662026.146 10 0 60557 32400.00000 0 -7540951.112 13456240.466 20311322.137 10 0 60557 33300.00000 0 -9672173.082 14565100.619 18565986.767 10 0 60557 34200.00000 0 -11508400.893 15713942.658 16459831.157 10 0 60557 35100.00000 0 -13020311.833 16844567.237 14033701.968 10 0 60557 36000.00000 0 -14191318.151 17896027.234 11334693.910 10 0 60557 36900.00000 0 -15018015.159 18807259.833 8415237.896 10 0 60557 37800.00000 0 -15510081.552 19519744.593 5332082.192 10 0 60557 38700.00000 0 -15689636.538 19980074.771 2145186.291 10 0 60557 39600.00000 0 -15590081.369 20142332.486 -1083450.586 10 0 60557 40500.00000 0 -15254474.871 19970166.265 -4291002.949 10 0 60557 41400.00000 0 -14733512.505 19438482.023 -7415049.967 10 0 60557 42300.00000 0 -14083195.440 18534674.803 -10394798.802 10 0 60557 43200.00000 0 -13362289.382 17259348.210 -13172275.553 10 0 60557 44100.00000 0 -12629681.784 15626490.245 -15693459.678 10 0 60557 45000.00000 0 -11941750.232 13663097.439 -17909339.097 10 0 60557 45900.00000 0 -11349854.091 11408262.579 -19776865.036 10 0 60557 46800.00000 0 -10898055.929 8911763.993 -21259787.980 10 0 60557 47700.00000 0 -10621169.156 6232215.310 -22329358.652 10 0 60557 48600.00000 0 -10543214.200 3434852.878 -22964880.918 10 0 60557 49500.00000 0 -10676347.938 589052.994 -23154106.556 10 0 60557 50400.00000 0 -11020311.018 -2234317.880 -22893464.971 10 0 60557 51300.00000 0 -11562415.700 -4965610.130 -22188124.186 10 0 60557 52200.00000 0 -12278074.150 -7539043.379 -21051882.618 10 0 60557 53100.00000 0 -13131844.418 -9895194.881 -19506894.284 10 0 60557 54000.00000 0 -14078949.688 -11983221.666 -17583233.158 10 0 60557 54900.00000 0 -15067206.668 -13762725.367 -15318305.308 10 0 60557 55800.00000 0 -16039281.877 -15205183.568 -12756120.308 10 0 60557 56700.00000 0 -16935180.925 -16294889.632 -9946435.970 10 0 60557 57600.00000 0 -17694866.140 -17029363.377 -6943792.872 10 0 60557 58500.00000 0 -18260892.497 -17419217.009 -3806457.272 10 0 60557 59400.00000 0 -18580951.019 -17487483.342 -595292.781 10 0 60557 60300.00000 0 -18610212.653 -17268435.799 2627417.477 10 0 60557 61200.00000 0 -18313373.933 -16805950.739 5799175.433 10 0 60557 62100.00000 0 -17666318.192 -16151481.770 8858476.151 10 0 60557 63000.00000 0 -16657322.154 -15361731.763 11745996.171 10 0 60557 63900.00000 0 -15287756.663 -14496120.812 14405739.258 10 0 60557 64800.00000 0 -13572251.416 -13614156.737 16786117.679 10 0 60557 65700.00000 0 -11538315.817 -12772818.634 18840948.468 10 0 60557 66600.00000 0 -9225430.648 -12024063.318 20530345.768 10 0 60557 67500.00000 0 -6683647.140 -11412559.204 21821492.460 10 0 60557 68400.00000 0 -3971750.370 -10973742.663 22689276.542 10 0 60557 69300.00000 0 -1155061.952 -10732278.379 23116780.203 10 0 60557 70200.00000 0 1697028.143 -10700988.484 23095612.244 10 0 60557 71100.00000 0 4513699.517 -10880295.707 22626077.279 10 0 60557 72000.00000 0 7225400.720 -11258204.482 21717178.045 10 0 60557 72900.00000 0 9766499.017 -11810821.485 20386450.160 10 0 60557 73800.00000 0 12077771.284 -12503394.601 18659631.668 10 0 60557 74700.00000 0 14108632.936 -13291827.441 16570172.850 10 0 60557 75600.00000 0 15819012.438 -14124606.451 14158594.811 10 0 60557 76500.00000 0 17180793.364 -14945059.987 11471708.414 10 0 60557 77400.00000 0 18178763.794 -15693854.347 8561708.050 10 0 60557 78300.00000 0 18811033.377 -16311621.316 5485157.476 10 0 60557 79200.00000 0 19088900.746 -16741605.783 2301887.371 10 0 60557 80100.00000 0 19036177.157 -16932220.691 -926173.593 10 0 60557 81000.00000 0 18687995.371 -16839400.230 -4136210.807 10 0 60557 81900.00000 0 18089154.769 -16428650.472 -7265754.433 10 0 60557 82800.00000 0 17292073.453 -15676709.466 -10253903.759 10 0 60557 83700.00000 0 16354434.917 -14572745.346 -13042520.320 10 0 60557 84600.00000 0 15336629.774 -13119040.745 -15577365.653 10 0 60557 85500.00000 0 14299101.661 -11331133.688 -17809160.778 10 0 60558 0.00000 0 13299710.301 -9237408.495 -19694546.225 10 0 60558 900.00000 0 12391223.075 -6878152.126 -21196924.778 10 0 60558 1800.00000 0 11619042.489 -4304117.996 -22287168.295 10 0 60558 2700.00000 0 11019263.381 -1574653.331 -22944178.737 10 0 60558 3600.00000 0 10617142.650 1244529.335 -23155290.564 10 0 60558 4500.00000 0 10426044.645 4083844.954 -22916508.541 10 0 60558 5400.00000 0 10446905.807 6872489.559 -22232576.917 10 0 60558 6300.00000 0 10668240.115 9541144.885 -21116879.355 10 0 60558 7200.00000 0 11066684.157 12024622.327 -19591172.097 10 0 60558 8100.00000 0 11608058.057 14264337.282 -17685155.938 10 0 60558 9000.00000 0 12248896.937 16210512.137 -15435895.504 10 0 60558 9900.00000 0 12938387.954 17824017.463 -12887097.193 10 0 60558 10800.00000 0 13620631.012 19077776.082 -10088259.709 10 0 60558 11700.00000 0 14237127.795 19957672.882 -7093713.564 10 0 60558 12600.00000 0 14729394.136 20462933.745 -3961568.033 10 0 60558 13500.00000 0 15041585.660 20605959.101 -752585.869 10 0 60558 14400.00000 0 15123026.015 20411620.274 2470992.561 10 0 60558 15300.00000 0 14930531.085 19916049.166 5646652.976 10 0 60558 16200.00000 0 14430431.129 19164972.902 8712815.522 10 0 60558 17100.00000 0 13600205.379 18211663.929 11610024.526 10 0 60558 18000.00000 0 12429659.843 17114592.048 14282096.748 10 0 60558 18900.00000 0 10921598.089 15934877.084 16677206.251 10 0 60558 19800.00000 0 9091955.903 14733649.113 18748885.222 10 0 60558 20700.00000 0 6969392.958 13569426.797 20456921.797 10 0 60558 21600.00000 0 4594357.163 12495623.524 21768137.946 10 0 60558 22500.00000 0 2017659.137 11558285.558 22657032.791 10 0 60558 23400.00000 0 -701385.424 10794156.745 23106279.149 10 0 60558 24300.00000 0 -3497169.876 10229150.654 23107063.844 10 0 60558 25200.00000 0 -6300276.836 9877294.152 22659265.035 10 0 60558 26100.00000 0 -9040122.806 9740186.832 21771462.785 10 0 60558 27000.00000 0 -11647658.607 9806999.269 20460782.033 10 0 60558 27900.00000 0 -14058014.326 10055010.600 18752570.157 10 0 60558 28800.00000 0 -16212979.390 10450663.386 16679914.470 10 0 60558 29700.00000 0 -18063214.847 10951091.822 14283007.985 10 0 60558 30600.00000 0 -19570105.740 11506059.358 11608374.871 10 0 60558 31500.00000 0 -20707176.067 12060224.162 8707969.972 10 0 60558 32400.00000 0 -21461007.050 12555636.657 5638169.443 10 0 60558 33300.00000 0 -21831620.063 12934363.166 2458672.080 10 0 60558 34200.00000 0 -21832308.203 13141123.903 -768666.974 10 0 60558 35100.00000 0 -21488923.791 13125832.655 -3981046.837 10 0 60558 36000.00000 0 -20838652.311 12845929.388 -7115951.367 10 0 60558 36900.00000 0 -19928325.153 12268405.713 -10112374.494 10 0 60558 37800.00000 0 -18812343.253 11371436.188 -12912015.512 10 0 60558 38700.00000 0 -17550300.203 10145545.215 -15460420.122 10 0 60558 39600.00000 0 -16204406.130 8594259.190 -17708044.250 10 0 60558 40500.00000 0 -14836821.806 6734215.462 -19611219.517 10 0 60558 41400.00000 0 -13507015.992 4594722.777 -21133001.465 10 0 60558 42300.00000 0 -12269257.615 2216791.071 -22243884.240 10 0 60558 43200.00000 0 -11170348.233 -348329.199 -22922368.315 10 0 60558 44100.00000 0 -10247689.716 -3041037.527 -23155370.906 10 0 60558 45000.00000 0 -9527767.568 -5795625.107 -22938471.866 10 0 60558 45900.00000 0 -9025112.567 -8542774.856 -22275991.084 10 0 60558 46800.00000 0 -8741783.103 -11212216.192 -21180896.576 10 0 60558 47700.00000 0 -8667388.674 -13735424.749 -19674545.632 10 0 60558 48600.00000 0 -8779652.302 -16048255.552 -17786264.437 10 0 60558 49500.00000 0 -9045487.093 -18093401.025 -15552774.540 10 0 60558 50400.00000 0 -9422540.684 -19822572.576 -13017477.368 10 0 60558 51300.00000 0 -9861141.849 -21198315.998 -10229610.626 10 0 60558 52200.00000 0 -10306566.701 -22195386.177 -7243292.798 10 0 60558 53100.00000 0 -10701528.649 -22801624.860 -4116474.195 10 0 60558 54000.00000 0 -10988786.882 -23018305.959 -909814.706 10 0 60558 54900.00000 0 -11113763.221 -22859934.998 2314490.089 10 0 60558 55800.00000 0 -11027056.851 -22353511.989 5493911.774 10 0 60558 56700.00000 0 -10686750.707 -21537289.452 8566797.725 10 0 60558 57600.00000 0 -10060412.053 -20459078.166 11473562.257 10 0 60558 58500.00000 0 -9126702.560 -19174172.086 14157837.376 10 0 60558 59400.00000 0 -7876529.521 -17742979.576 16567561.176 10 0 60558 60300.00000 0 -6313688.935 -16228460.179 18655983.170 10 0 60558 61200.00000 0 -4454972.385 -14693474.080 20382567.510 10 0 60558 62100.00000 0 -2329731.796 -13198154.888 21713777.071 10 0 60558 63000.00000 0 21081.308 -11797415.227 22623723.638 10 0 60558 63900.00000 0 2546363.703 -10538689.052 23094671.899 10 0 60558 64800.00000 0 5186736.997 -9460004.667 23117387.590 10 0 60558 65700.00000 0 7876776.472 -8588468.733 22691322.970 10 0 60558 66600.00000 0 10547501.111 -7939224.519 21824635.638 10 0 60558 67500.00000 0 13129022.721 -7514927.940 20534039.719 10 0 60558 68400.00000 0 15553245.061 -7305763.441 18844491.463 10 0 60558 69300.00000 0 17756501.397 -7289999.240 16788714.402 10 0 60558 70200.00000 0 19682021.033 -7435058.790 14406572.291 10 0 60558 71100.00000 0 21282122.041 -7699063.549 11744301.077 10 0 60558 72000.00000 0 22520038.401 -8032782.026 8853614.132 10 0 60558 72900.00000 0 23371304.810 -8381902.651 5790697.721 10 0 60558 73800.00000 0 23824640.766 -8689533.975 2615116.118 10 0 60558 74700.00000 0 23882296.533 -8898825.658 -611351.980 10 0 60558 75600.00000 0 23559846.351 -8955598.298 -3825922.516 10 0 60558 76500.00000 0 22885437.728 -8810869.507 -6966036.211 10 0 60558 77400.00000 0 21898528.822 -8423167.906 -9970584.770 10 0 60558 78300.00000 0 20648167.768 -7760535.684 -12781108.239 10 0 60558 79200.00000 0 19190887.235 -6802133.673 -15342939.273 10 0 60558 80100.00000 0 17588303.828 -5539379.913 -17606271.249 10 0 60558 81000.00000 0 15904524.242 -3976572.607 -19527128.998 10 0 60558 81900.00000 0 14203467.979 -2130970.347 -21068223.153 10 0 60558 82800.00000 0 12546219.600 -32325.555 -22199671.651 10 0 60558 83700.00000 0 10988521.776 2278109.849 -22899574.846 10 0 60558 84600.00000 0 9578513.992 4749065.406 -23154433.734 10 0 60558 85500.00000 0 8354811.074 7321158.200 -22959403.921 99